Wind_Speed
30 30 31 31 31 31 31 31 30 31 31 30 29 29 28 28 28 28 29 29 29 30 31 31 32 33 33 34 34 35 35 34 34 34 34 34 34 35 35 36 36 36 36
31 30 31 31 31 31 32 31 31 30 31 31 31 30 30 30 30 30 30 31 31 31 32 33 33 34 35 35 36 36 36 35 35 35 35 35 36 36 36 36 37 37 37
33 32 32 32 32 33 33 32 32 31 31 31 31 31 30 31 30 31 31 32 33 33 34 34 35 36 36 37 36 36 36 36 36 36 36 37 37 37 37 38 38 38 38
34 34 33 32 33 34 33 32 32 31 31 31 32 31 32 32 32 32 33 33 34 34 35 36 37 37 37 37 36 36 36 36 37 38 38 38 38 38 38 39 39 39 39
35 35 35 34 34 34 34 33 33 32 32 32 33 33 33 33 33 34 34 35 35 35 36 36 37 38 37 37 37 37 37 37 38 38 37 37 38 38 39 39 40 40 41
35 36 35 36 35 34 35 34 34 34 34 34 35 35 35 34 35 35 36 36 37 37 37 38 38 38 37 37 37 37 38 38 38 37 37 38 38 39 39 40 40 41 41
36 36 36 36 35 35 36 36 35 35 36 37 36 36 36 36 36 36 37 37 38 38 39 39 39 39 38 38 38 38 38 38 38 38 38 38 39 40 40 41 41 41 42
37 37 37 36 36 35 36 37 37 37 37 37 37 36 37 37 36 37 37 38 39 40 40 40 40 40 39 39 38 39 39 39 38 39 40 40 40 41 41 41 41 42 42
38 38 38 38 38 38 37 37 37 37 37 37 37 37 38 38 37 37 38 39 40 41 41 41 41 40 40 39 40 40 40 40 40 40 40 40 41 41 41 41 41 42 42
38 38 38 38 37 38 39 38 38 37 37 38 38 38 39 39 39 38 38 39 40 41 41 41 41 41 40 39 40 40 41 40 40 40 40 41 41 40 41 41 41 42 42
38 38 38 38 38 38 38 38 38 38 38 38 38 38 39 39 39 39 39 39 40 41 42 41 41 40 40 40 41 41 41 41 41 41 40 41 41 41 41 41 41 42 42
39 39 38 38 39 39 38 39 40 39 38 38 38 38 39 39 40 40 40 39 40 41 42 41 40 40 40 40 41 42 42 42 41 41 41 41 41 42 42 42 41 41 41
39 39 39 39 39 39 39 40 40 40 39 39 39 39 40 40 41 41 41 41 41 40 40 40 40 40 41 41 42 42 42 42 42 41 41 41 41 41 41 41 40 40 38
40 40 41 41 40 40 40 41 41 41 41 40 40 39 40 41 41 41 41 41 41 41 40 40 40 41 42 42 42 42 41 41 42 42 42 42 41 41 40 40 40 38 37
39 41 41 41 41 41 41 41 42 42 41 41 41 40 40 40 40 41 41 42 42 41 40 40 41 42 42 42 42 41 41 41 42 42 42 41 40 40 39 39 38 37 37
40 41 42 42 42 42 42 42 42 43 43 43 42 41 41 41 40 40 41 42 42 42 41 41 42 42 42 42 41 40 40 40 40 40 40 39 39 38 38 37 37 37 36
40 40 41 41 41 41 41 42 41 41 42 43 42 42 42 42 41 42 42 42 42 42 42 41 42 42 42 42 41 39 38 38 38 39 39 38 38 37 36 36 36 36 36
40 40 40 40 40 40 40 40 41 41 42 43 43 43 42 42 42 42 43 43 42 42 42 41 41 42 42 42 41 40 39 39 39 39 39 38 37 37 37 36 36 37 37
40 40 39 39 39 39 39 40 41 41 41 42 42 42 42 42 42 42 43 42 42 41 41 41 41 41 41 41 41 40 39 39 38 38 39 38 37 37 36 36 37 37 37
40 40 39 39 39 39 40 40 40 40 40 41 41 41 41 42 42 42 42 42 42 41 41 41 41 40 40 40 40 40 39 39 39 39 39 38 37 37 36 37 38 38 39
39 39 39 39 39 40 40 40 39 40 40 40 40 40 40 41 42 42 42 41 42 42 41 41 41 40 40 39 39 39 39 39 39 39 39 38 38 38 38 39 39 39 39
39 39 39 39 39 39 39 39 40 39 40 40 40 40 41 42 42 42 42 41 41 41 41 41 41 40 39 38 39 39 39 39 39 39 38 39 39 39 39 39 39 38 38
38 38 38 39 39 39 39 39 40 39 39 39 40 41 41 41 41 41 41 41 41 41 40 40 39 38 38 38 38 38 38 37 37 38 38 38 38 38 39 38 38 37 37
37 37 37 38 38 38 38 38 39 39 39 40 40 41 41 41 41 41 40 40 39 39 38 38 37 36 36 36 36 36 36 36 36 37 37 37 37 38 37 37 37 37 37
36 36 37 37 37 37 37 38 39 39 39 39 40 40 41 41 40 40 39 38 38 38 37 36 35 35 35 35 36 36 36 35 35 36 36 37 37 37 36 36 36 37 36
34 34 35 35 35 36 36 37 38 38 38 38 39 39 40 39 38 38 38 37 37 37 36 35 35 35 35 35 35 35 36 36 36 36 36 36 36 36 35 35 35 35 34
Wind_Direction
257 259 258 255 255 256 257 259 263 264 263 263 263 264 266 267 268 269 271 273 275 277 278 279 281 282 283 284 285 285 284 284 283 283 283 283 282 280 278 277 276 276 276
255 258 259 256 255 256 257 259 262 264 265 264 264 265 267 269 270 271 272 274 276 278 279 280 282 283 284 285 285 284 283 283 283 283 283 283 283 281 280 278 277 276 276
255 256 258 257 257 256 257 260 263 264 266 266 266 267 269 269 271 272 273 274 276 278 280 281 283 285 286 286 285 284 283 282 282 282 283 283 283 282 281 280 278 277 276
253 254 257 257 257 258 260 262 263 264 266 267 267 268 269 269 270 272 274 276 277 278 280 282 283 285 285 285 285 284 284 283 283 283 283 283 283 282 281 281 280 279 278
254 254 257 257 256 258 260 262 263 264 265 266 268 269 269 270 271 273 274 276 277 279 281 282 284 285 284 284 284 284 284 284 284 284 284 284 284 283 283 283 282 280 278
255 256 257 257 257 258 260 261 263 264 265 267 268 269 270 272 273 273 274 275 277 279 281 283 284 284 284 283 283 284 284 284 285 285 285 285 285 285 285 284 282 282 280
255 256 257 257 258 258 258 259 261 263 265 267 268 269 269 271 273 273 274 275 277 279 281 282 284 283 283 283 283 284 284 285 284 284 286 286 285 285 285 284 283 282 281
254 255 256 256 258 258 258 259 261 263 265 265 266 268 268 270 272 274 275 276 277 280 281 282 283 282 282 282 283 284 284 285 285 285 285 286 287 287 287 285 283 282 281
254 255 257 258 259 259 260 261 262 263 265 266 266 267 268 269 272 275 276 276 278 280 281 282 283 282 281 281 282 283 283 284 285 286 286 287 288 288 287 286 284 282 282
255 256 257 259 259 260 262 262 263 264 265 266 266 267 270 271 272 275 277 278 279 281 281 282 282 281 281 280 282 283 283 284 285 286 287 288 288 289 288 287 285 283 283
254 255 257 258 260 261 263 263 264 265 267 267 268 269 271 272 273 277 279 280 281 281 282 282 281 281 281 281 283 283 283 284 284 285 286 287 288 288 288 288 287 285 284
255 255 257 259 260 261 262 263 264 265 267 268 269 271 272 274 275 278 279 281 282 282 282 281 280 280 280 282 283 284 284 284 284 284 285 287 288 288 288 288 287 286 285
255 256 258 260 261 261 262 263 265 265 267 268 269 270 272 275 277 280 280 281 282 282 282 282 281 281 282 283 283 283 283 284 284 284 285 286 287 287 287 287 287 286 285
256 257 258 260 261 261 262 263 265 266 266 267 269 271 273 274 276 279 281 281 282 282 282 281 281 282 283 284 283 283 283 284 284 284 285 286 286 286 286 286 286 286 285
257 257 259 260 261 261 263 264 265 265 265 267 269 271 272 274 275 278 280 281 282 282 281 280 281 282 283 284 284 283 283 284 284 284 285 286 286 287 287 287 286 286 285
257 257 259 261 262 262 263 264 266 266 267 268 269 271 272 274 275 278 280 281 282 281 281 280 281 282 282 283 283 283 284 284 285 285 285 285 285 285 286 286 286 286 285
257 258 260 261 261 261 263 265 266 268 269 270 270 271 273 274 275 277 280 282 282 281 281 281 281 281 282 282 281 281 282 283 284 284 284 285 284 284 285 286 286 286 285
257 258 260 259 259 261 263 264 266 268 270 271 272 273 275 275 276 278 280 282 281 281 281 281 281 281 281 281 280 280 281 282 283 284 284 284 284 285 286 287 287 286 286
257 258 259 260 260 262 265 266 267 268 271 272 273 274 275 276 277 279 281 281 281 281 282 282 281 281 282 282 280 280 281 282 283 284 283 283 284 285 286 286 288 288 287
258 259 260 261 262 264 266 266 267 269 271 272 273 274 275 276 278 280 281 281 281 281 281 281 281 281 282 282 282 282 282 283 284 283 283 283 283 284 285 286 287 287 286
259 260 261 262 264 265 267 267 267 270 271 272 272 273 274 277 278 279 281 281 281 281 280 280 280 281 282 282 282 282 283 283 283 283 282 282 283 284 285 286 285 285 285
260 260 262 263 265 266 267 267 267 269 270 271 272 273 275 277 278 279 280 281 281 280 280 280 280 280 282 281 281 282 283 282 282 282 282 282 283 284 285 285 284 284 284
261 261 263 265 266 266 267 266 266 269 270 271 272 273 274 275 277 278 280 280 280 280 280 279 280 280 281 281 282 283 283 282 281 281 281 281 282 283 284 284 284 284 284
262 263 264 265 266 266 267 267 267 269 270 272 274 274 274 275 277 278 278 279 280 280 280 279 280 280 281 282 283 283 282 282 281 281 281 282 282 284 284 284 285 285 285
264 264 265 265 265 265 265 266 268 270 271 273 274 274 275 275 276 277 278 278 278 278 277 278 279 280 281 282 283 283 282 282 281 281 281 283 283 284 285 285 285 286 285
265 265 265 265 265 265 265 268 269 270 271 273 275 275 275 275 275 276 277 276 276 276 276 277 278 279 281 283 283 284 283 282 281 281 281 283 284 284 285 285 286 286 286
Height
5788 5789 5790 5791 5793 5794 5796 5797 5798 5799 5800 5801 5802 5803 5803 5804 5805 5805 5805 5805 5805 5805 5804 5803 5803 5802 5800 5799 5798 5796 5795 5793 5792 5791 5789 5788 5787 5786 5785 5784 5784 5783 5783
5781 5782 5783 5784 5786 5787 5789 5791 5792 5793 5794 5795 5796 5796 5797 5798 5798 5798 5799 5798 5798 5798 5797 5796 5795 5794 5792 5791 5790 5788 5787 5785 5784 5782 5781 5779 5778 5777 5776 5775 5774 5774 5773
5774 5775 5777 5777 5779 5780 5782 5784 5785 5786 5788 5788 5789 5790 5791 5791 5791 5791 5791 5791 5791 5790 5789 5788 5787 5786 5784 5783 5781 5780 5778 5777 5775 5774 5772 5771 5769 5768 5767 5766 5765 5764 5764
5766 5768 5769 5770 5771 5773 5775 5776 5778 5779 5780 5781 5782 5783 5784 5784 5784 5784 5784 5784 5783 5782 5781 5780 5779 5777 5776 5774 5772 5771 5769 5768 5766 5765 5763 5762 5760 5759 5757 5756 5755 5754 5754
5759 5760 5762 5763 5765 5766 5768 5769 5771 5772 5773 5774 5775 5776 5776 5777 5777 5777 5776 5776 5775 5774 5773 5772 5771 5769 5767 5765 5764 5762 5761 5759 5757 5756 5754 5752 5751 5749 5748 5746 5745 5744 5743
5751 5753 5755 5756 5758 5759 5761 5762 5763 5764 5765 5766 5767 5768 5768 5769 5768 5768 5768 5768 5767 5766 5765 5764 5762 5760 5758 5757 5755 5753 5752 5750 5748 5747 5745 5743 5742 5740 5738 5736 5735 5734 5732
5743 5745 5746 5748 5749 5751 5752 5754 5755 5756 5757 5758 5759 5759 5760 5760 5760 5760 5760 5759 5758 5757 5756 5755 5753 5751 5750 5748 5746 5744 5743 5741 5739 5738 5736 5734 5732 5730 5728 5726 5725 5723 5722
5734 5736 5738 5740 5741 5742 5744 5745 5746 5747 5748 5749 5750 5750 5751 5753 5752 5751 5751 5750 5749 5748 5747 5745 5744 5742 5740 5739 5737 5735 5733 5732 5730 5728 5727 5725 5722 5720 5717 5716 5714 5712 5711
5726 5728 5730 5731 5733 5734 5735 5736 5737 5738 5739 5740 5740 5742 5742 5743 5743 5743 5742 5741 5740 5739 5737 5736 5734 5733 5731 5730 5728 5726 5724 5722 5721 5719 5717 5715 5712 5710 5707 5705 5703 5701 5700
5717 5719 5721 5722 5724 5725 5726 5727 5728 5729 5730 5731 5731 5732 5733 5733 5734 5734 5734 5732 5730 5729 5728 5726 5724 5723 5721 5720 5718 5716 5714 5713 5711 5709 5707 5705 5702 5700 5697 5694 5692 5690 5689
5708 5710 5712 5714 5715 5716 5717 5718 5720 5721 5721 5722 5722 5723 5723 5723 5723 5724 5724 5723 5721 5719 5718 5716 5715 5713 5712 5710 5708 5707 5705 5703 5701 5699 5697 5694 5692 5689 5687 5684 5682 5679 5678
5699 5701 5703 5705 5706 5707 5708 5709 5710 5711 5712 5713 5713 5713 5713 5714 5713 5713 5713 5713 5711 5710 5708 5706 5705 5703 5701 5700 5698 5696 5694 5692 5690 5688 5686 5684 5682 5679 5676 5674 5671 5669 5667
5690 5692 5693 5695 5697 5698 5699 5700 5701 5702 5702 5703 5704 5704 5704 5704 5703 5703 5703 5702 5702 5700 5698 5696 5694 5693 5691 5689 5688 5686 5684 5682 5680 5678 5676 5674 5671 5668 5666 5663 5661 5659 5657
5680 5682 5684 5685 5687 5688 5689 5690 5691 5692 5693 5694 5694 5694 5694 5694 5693 5693 5692 5692 5691 5690 5689 5687 5684 5683 5681 5679 5677 5675 5673 5671 5669 5667 5665 5663 5660 5657 5655 5653 5651 5649 5647
5670 5672 5673 5675 5676 5678 5679 5680 5681 5682 5683 5684 5684 5684 5684 5684 5683 5682 5681 5680 5680 5679 5679 5677 5674 5672 5670 5669 5667 5665 5663 5661 5658 5656 5655 5652 5650 5647 5645 5643 5641 5639 5637
5659 5661 5663 5664 5666 5667 5669 5670 5671 5672 5673 5673 5674 5674 5674 5673 5673 5672 5671 5670 5668 5667 5667 5666 5664 5662 5660 5658 5656 5654 5652 5650 5648 5646 5644 5642 5639 5637 5635 5633 5630 5629 5627
5650 5651 5653 5654 5655 5657 5658 5660 5661 5662 5662 5663 5663 5663 5663 5662 5662 5661 5660 5659 5658 5656 5656 5655 5653 5651 5649 5647 5645 5644 5642 5640 5638 5636 5633 5631 5628 5626 5625 5623 5620 5618 5617
5640 5641 5643 5644 5645 5646 5648 5649 5650 5651 5652 5652 5652 5652 5651 5651 5651 5650 5649 5648 5647 5645 5644 5643 5642 5640 5638 5636 5634 5633 5631 5630 5628 5625 5623 5620 5618 5616 5614 5612 5610 5609 5607
5629 5631 5632 5634 5635 5636 5637 5638 5640 5641 5641 5641 5641 5641 5640 5640 5639 5639 5638 5637 5635 5634 5633 5632 5631 5629 5627 5625 5624 5622 5620 5619 5617 5614 5612 5610 5608 5606 5604 5602 5600 5598 5596
5619 5621 5622 5624 5625 5626 5627 5627 5629 5629 5630 5630 5630 5629 5629 5629 5628 5627 5626 5625 5624 5623 5621 5620 5619 5618 5616 5614 5613 5611 5609 5608 5606 5604 5601 5600 5598 5596 5594 5592 5591 5588 5586
5608 5610 5612 5613 5614 5615 5616 5616 5617 5618 5618 5619 5618 5618 5618 5617 5617 5616 5615 5614 5612 5611 5610 5609 5608 5606 5605 5603 5602 5600 5598 5596 5595 5593 5591 5589 5587 5586 5584 5582 5580 5577 5575
5598 5599 5601 5602 5603 5604 5604 5605 5606 5607 5607 5607 5607 5607 5607 5606 5605 5604 5603 5602 5601 5600 5599 5597 5596 5595 5594 5592 5591 5589 5587 5586 5584 5582 5579 5578 5576 5575 5573 5571 5569 5567 5564
5587 5589 5590 5591 5592 5593 5593 5594 5594 5595 5596 5596 5596 5595 5595 5594 5593 5593 5592 5591 5589 5588 5587 5586 5585 5584 5583 5581 5580 5578 5576 5574 5572 5571 5569 5568 5566 5564 5562 5560 5558 5556 5553
5576 5578 5579 5580 5581 5581 5582 5583 5583 5584 5585 5585 5584 5584 5583 5582 5582 5581 5580 5579 5578 5577 5576 5575 5574 5573 5572 5570 5569 5567 5565 5563 5562 5560 5558 5557 5556 5554 5551 5549 5547 5545 5543
5566 5567 5568 5569 5570 5571 5571 5572 5572 5573 5573 5573 5573 5572 5571 5571 5570 5569 5569 5568 5567 5566 5565 5564 5563 5562 5561 5560 5558 5556 5554 5553 5552 5550 5548 5547 5545 5543 5541 5539 5537 5535 5533
5556 5557 5558 5558 5559 5560 5560 5561 5561 5562 5562 5562 5561 5561 5560 5559 5559 5558 5557 5557 5556 5556 5555 5554 5553 5552 5551 5549 5548 5546 5544 5542 5541 5540 5539 5536 5534 5532 5532 5530 5527 5525 5523